GW0710 Weather Reports


Display with metric or nautical units.
time (UTC)temp
F
wind
direction
speed
MPH
gust
MPH
rain 1hr
in
rain 24hr
in
rain mn
in
humidity
%
barometer
mb
20260510224554 68 288 4.0 12.0 0.00 0.00 0.00 28 1020.7
20260510223057 67 288 5.0 9.0 0.00 0.00 0.00 28 1020.7
20260510221602 67 323 4.0 7.0 0.00 0.00 0.00 31 1020.7
20260510220054 68 345 3.0 8.0 0.00 0.00 0.00 28 1020.7
20260510214607 65 241 4.0 8.0 0.00 0.00 0.00 30 1020.8
20260510213054 66 290 3.0 9.0 0.00 0.00 0.00 29 1020.9
20260510211557 66 317 3.0 11.0 0.00 0.00 0.00 30 1021.0
20260510210056 66 288 6.0 13.0 0.00 0.00 0.00 30 1021.3
20260510204556 66 313 3.0 10.0 0.00 0.00 0.00 31 1021.3
20260510203055 66 323 7.0 13.0 0.00 0.00 0.00 31 1021.2
20260510201609 66 322 10.0 17.0 0.00 0.00 0.00 30 1021.2
20260510200059 67 291 2.0 9.0 0.00 0.00 0.00 29 1021.2
20260510194559 67 277 3.0 12.0 0.00 0.00 0.00 28 1021.1
20260510193102 66 95 2.0 9.0 0.00 0.00 0.00 30 1021.3
20260510191602 67 156 2.0 10.0 0.00 0.00 0.00 30 1021.3
20260510190054 66 233 6.0 12.0 0.00 0.00 0.00 34 1021.3
20260510184553 66 279 8.0 13.0 0.00 0.00 0.00 31 1020.9
20260510183054 66 19 3.0 9.0 0.00 0.00 0.00 30 1021.0
20260510181555 65 292 4.0 11.0 0.00 0.00 0.00 33 1021.0
20260510180108 64 304 5.0 14.0 0.00 0.00 0.00 35 1021.0
20260510174601 64 36 1.0 13.0 0.00 0.00 0.00 31 1021.0
20260510173102 64 336 4.0 10.0 0.00 0.00 0.00 32 1021.2
20260510171603 64 279 3.0 15.0 0.00 0.00 0.00 32 1021.5
20260510170057 65 340 2.0 10.0 0.00 0.00 0.00 31 1021.9
20260510164557 64 336 2.0 11.0 0.00 0.00 0.00 33 1021.6
20260510163057 63 118 3.0 9.0 0.00 0.00 0.00 34 1021.5
20260510161555 63 264 2.0 8.0 0.00 0.00 0.00 30 1021.6
20260510160054 63 300 3.0 9.0 0.00 0.00 0.00 29 1021.5
20260510154600 63 351 2.0 10.0 0.00 0.00 0.00 34 1021.4
20260510153055 62 355 5.0 10.0 0.00 0.00 0.00 30 1021.3
20260510151603 61 344 4.0 9.0 0.00 0.00 0.00 34 1021.3
20260510150104 61 272 2.0 9.0 0.00 0.00 0.00 38 1021.1
20260510144607 60 349 1.0 7.0 0.00 0.00 0.00 38 1021.1
20260510143101 59 64 2.0 7.0 0.00 0.00 0.00 38 1020.9
20260510141554 58 348 3.0 6.0 0.00 0.00 0.00 42 1021.3
20260510140054 57 296 3.0 6.0 0.00 0.00 0.00 47 1021.2
20260510134555 56 310 3.0 8.0 0.00 0.00 0.00 47 1020.6
20260510133055 55 348 2.0 9.0 0.00 0.00 0.00 49 1020.1
20260510131555 54 280 2.0 8.0 0.00 0.00 0.00 49 1020.1
20260510124603 52 311 3.0 9.0 0.00 0.00 0.00 53 1020.0
20260510123059 51 337 3.0 9.0 0.00 0.00 0.00 54 1019.8
20260510121556 50 355 3.0 8.0 0.00 0.00 0.00 56 1019.5
20260510120054 49 292 3.0 7.0 0.00 0.00 0.00 57 1019.4
20260510114554 49 279 2.0 6.0 0.00 0.00 0.00 57 1019.0
20260510113059 48 277 3.0 6.0 0.00 0.00 0.00 58 1018.6
20260510111555 48 256 2.0 6.0 0.00 0.00 0.00 58 1018.5
20260510110055 48 303 2.0 4.0 0.00 0.00 0.00 59 1018.4
20260510104554 49 279 2.0 7.0 0.00 0.00 0.00 59 1018.3
20260510103101 49 266 3.0 6.0 0.00 0.00 0.00 58 1017.9
20260510101559 50 316 2.0 5.0 0.00 0.00 0.00 57 1017.8
20260510100105 50 299 3.0 7.0 0.00 0.00 0.00 58 1017.7
20260510094555 51 279 3.0 5.0 0.00 0.00 0.00 58 1017.7
20260510093056 52 283 2.0 7.0 0.00 0.00 0.00 55 1017.4
20260510091600 52 267 3.0 4.0 0.00 0.00 0.00 55 1017.3
20260510090054 53 291 2.0 3.0 0.00 0.00 0.00 56 1017.2
20260510084557 54 282 2.0 3.0 0.00 0.00 0.00 52 1017.0
20260510083059 54 279 2.0 4.0 0.00 0.00 0.00 50 1016.7
20260510081556 55 269 1.0 3.0 0.00 0.00 0.00 49 1016.0
20260510080104 55 296 2.0 6.0 0.00 0.00 0.00 48 1015.8
20260510074600 56 263 2.0 5.0 0.00 0.00 0.00 49 1015.6
20260510073114 57 264 1.0 5.0 0.00 0.00 0.00 49 1015.4
20260510071555 58 294 2.0 4.0 0.00 0.00 0.00 48 1015.6
20260510070100 59 306 1.0 7.0 0.00 0.00 0.00 46 1015.5
20260510064635 60 236 3.0 10.0 0.00 0.00 0.00 42 1015.4
20260510063055 60 348 3.0 8.0 0.00 0.00 0.00 47 1015.4
20260510061558 59 306 3.0 7.0 0.00 0.00 0.00 56 1015.1
20260510060058 60 329 3.0 9.0 0.00 0.00 0.00 60 1014.8
20260510054559 59 313 2.0 5.0 0.00 0.00 0.00 63 1014.4
20260510053054 58 273 2.0 4.0 0.00 0.00 0.00 65 1014.3
20260510051557 57 271 1.0 3.0 0.00 0.00 0.00 70 1014.2
20260510050056 56 295 1.0 2.0 0.00 0.00 0.00 77 1014.0
20260510044557 57 295 1.0 3.0 0.00 0.00 0.00 76 1013.6
20260510043055 57 295 2.0 3.0 0.00 0.00 0.00 74 1013.5
20260510041553 58 295 1.0 2.0 0.00 0.00 0.00 71 1013.3
20260510040058 60 295 0.0 2.0 0.00 0.00 0.00 67 1013.2
20260510034614 61 295 0.0 1.0 0.00 0.00 0.00 62 1013.1
20260510033059 63 0 0.0 2.0 0.00 0.00 0.00 59 1013.1
20260510031553 63 295 0.0 2.0 0.00 0.00 0.00 57 1012.8
20260510030059 64 0 0.0 3.0 0.00 0.00 0.00 57 1012.7
20260510024558 65 292 1.0 4.0 0.00 0.00 0.00 55 1012.2
20260510023054 65 323 2.0 5.0 0.00 0.00 0.00 54 1011.8
20260510021603 66 348 1.0 4.0 0.00 0.00 0.00 55 1011.4
20260510020056 67 320 2.0 8.0 0.00 0.00 0.00 53 1010.7
20260510014602 67 355 4.0 10.0 0.00 0.00 0.00 53 1010.6
20260510013124 66 286 2.0 4.0 0.00 0.00 0.00 61 1010.5
20260510011556 66 286 1.0 8.0 0.00 0.00 0.00 62 1010.5
20260510010057 66 302 2.0 11.0 0.00 0.00 0.00 66 1010.3
20260510004557 67 292 9.0 22.0 0.00 0.00 0.00 65 1010.1
20260510003104 74 291 0.0 2.0 0.00 0.00 0.00 50 1008.8
20260510001555 76 0 0.0 0.0 0.00 0.00 0.00 40 1007.7
20260510000123 77 0 0.0 0.0 0.00 0.00 0.00 38 1007.5
20260509234555 78 0 0.0 0.0 0.00 0.00 0.00 36 1007.6
20260509233055 79 0 0.0 1.0 0.00 0.00 0.00 38 1007.4
20260509231601 79 0 0.0 8.0 0.00 0.00 0.00 36 1007.4
20260509230059 79 0 0.0 3.0 0.00 0.00 0.00 37 1007.4